Weather History for Clayton Lake, ME

Change the Weather History Date:

Sunday, February 3, 2013

  Actual Average Record
Temperature  
Mean Temperature 2 °F -  
Max Temperature 21 °F 22 °F 39 °F (1998)
Min Temperature -15 °F -6 °F -92 °F (2000)
Degree Days  
Heating Degree Days 63    
Moisture  
Dew Point -3 °F    
Average Humidity 78    
Maximum Humidity 89    
Minimum Humidity 54    
Precipitation  
Precipitation 0.04 in - - ()
Sea Level Pressure  
Sea Level Pressure 30.02 in    
Wind  
Wind Speed 1 mph (North)    
Max Wind Speed 5 mph    
Max Gust Speed -    
Averages and records for this station are not official NWS values.
T = Trace of Precipitation, MM = Missing Value Source: NWS Daily Summary

Daily Weather History Graph

Daily Weather History Graph

Search for Another Location

Airport:

Trip Planner

Search our weather history database for the weather conditions in past years. The results will help you decide how hot, cold, wet, or windy it might be!

Date:

Astronomy

Feb. 03, 2013 Rise Set
Actual Time 6:59 AM EST 4:45 PM EST
Civil Twilight 6:27 AM EST 5:17 PM EST
Nautical Twilight 5:51 AM EST 5:53 PM EST
Astronomical Twilight 5:15 AM EST 6:28 PM EST
Moon 12:23 AM EST (2/3) 10:18 AM EST (2/3)
Length of Visible Light 10h 50m
Length of Day
9h 46m
Waning Gibbous, 49% of the Moon is Illuminated
Feb 3
Waning Gibbous
Feb 10
New
Feb 17
First Quarter
Feb 25
Full
Mar 4
Last Quarter

Hourly Weather History & Observations

Time (EST) Temp. Windchill Dew Point Humidity Pressure Visibility Wind Dir Wind Speed Gust Speed Precip Events Conditions
12:25 AM 3.7 °F - 0.7 °F 87% 30.12 in - Calm Calm - 0.01 in   Unknown
1:25 AM 0.7 °F - -2.4 °F 87% 30.12 in - Calm Calm - 0.00 in   Unknown
2:26 AM -3.8 °F - -7.6 °F 84% 30.13 in - Calm Calm - N/A   Unknown
3:25 AM -7.1 °F - -10.3 °F 86% 30.12 in - Calm Calm - 0.00 in   Unknown
4:25 AM -10.8 °F - -15.5 °F 80% 30.13 in - Calm Calm - N/A   Unknown
5:25 AM -11.7 °F - -15.9 °F 82% 30.14 in - Calm Calm - 0.00 in   Unknown
6:25 AM -13.7 °F - -18.0 °F 81% 30.14 in - Calm Calm - N/A   Unknown
7:25 AM -15.7 °F - -20.4 °F 79% 30.15 in - Calm Calm - 0.00 in   Unknown
8:28 AM -10.7 °F - -15.3 °F 80% 30.15 in - Calm Calm - 0.00 in   Unknown
9:25 AM -1.1 °F - -7.4 °F 75% 30.13 in - Calm Calm - 0.03 in   Unknown
10:25 AM 7.5 °F -1.1 °F 0.7 °F 74% 30.12 in - Variable 4.6 mph - 0.01 in   Unknown
11:25 AM 14.4 °F - 5.5 °F 68% 30.09 in - Calm Calm - N/A   Unknown
12:28 PM 17.8 °F 12.5 °F 6.3 °F 61% 30.04 in - Variable 3.5 mph - N/A   Unknown
1:25 PM 18.3 °F 11.5 °F 5.0 °F 56% 30.01 in - Variable 4.6 mph - N/A   Unknown
2:28 PM 19.4 °F 14.3 °F 5.0 °F 54% 29.98 in - Variable 3.5 mph - N/A   Unknown
3:25 PM 19.4 °F 12.8 °F 7.2 °F 59% 29.96 in - Variable 4.6 mph - N/A   Unknown
4:27 PM 15.6 °F - 8.1 °F 72% 29.94 in - Variable 2.3 mph - N/A   Unknown
5:25 PM 9.9 °F - 7.0 °F 88% 29.93 in - Calm Calm - 0.00 in   Unknown
6:25 PM 6.3 °F - 2.3 °F 84% 29.92 in - Calm Calm - 0.00 in   Unknown
7:25 PM 2.8 °F - 0.3 °F 89% 29.88 in - Calm Calm - 0.00 in   Unknown
8:25 PM 1.6 °F - -1.1 °F 88% 29.87 in - Calm Calm - N/A   Unknown
9:25 PM 3.4 °F - 0.3 °F 87% 29.86 in - Calm Calm - 0.00 in   Unknown
10:25 PM 0.3 °F - -2.6 °F 88% 29.84 in - Calm Calm - N/A   Unknown
11:25 PM -1.5 °F - -4.9 °F 85% 29.80 in - Calm Calm - 0.00 in   Unknown